Weather in Tambovka

Russia / Astrakhan Oblast     47°18′48″N   47°23′13″E
temp.,
°C
wind,
m/s
gust,
m/s
humid.,
%
clouds,
%
prec.,
mm/h
press.,
hPa
HPBL,
m
15 august, mon
mon1501:00+29ene612214 0.0 1011279
04:00+27ene5122263 0.0 1011246
07:00+27e6132851 0.0 1012400
10:00+33e910215 0.0 10121085
13:00+37e88170 0.0 10121931
16:00+37ene87160 0.0 10112741
19:00+35ene79190 0.0 1011787
22:00+31ene8142481 0.0 1012382
16 august, tue
tue1601:00+28ne7132138 0.0 1012325
04:00+25ene511265 0.0 1012198
07:00+26ene59310 0.0 1012225
10:00+35e56190 0.0 1012849
13:00+39e66140 0.0 10111988
16:00+40ene77120 0.0 10103054
19:00+38e47140 0.0 1010244
22:00+30e332417 0.0 101225
17 august, wed
wed1701:00+28e442731 0.0 101239
04:00+27ese452672 0.0 101158
07:00+28ese492716 0.0 1012165
10:00+38se8101533 0.0 10111177
13:00+41s8101186 0.0 10093404
16:00+41s1011125 0.0 10093106
19:00+37sse811165 0.0 1009761
22:00+29se613320 0.0 1010296
18 august, thu
thu1801:00+26se615435 0.0 1010311
04:00+26se71539100 0.0 1010316
07:00+28se71632100 0.0 1010507
10:00+35sse10142089 0.0 10101405
13:00+38sse111315100 0.0 10102473
16:00+37sse111214100 0.0 10102379
19:00+33se81016100 0.0 10111031
22:00+27ese5122446 0.0 1012231
19 august, fri
fri1901:00+25ese51334100 0.0 1012322
04:00+26ese71740100 0.0 1012520
07:00+27ese61432100 0.0 1013466
10:00+34se101418100 0.0 10141849
13:00+34se101314100 0.0 10142291
16:00+33se111414100 0.0 10141464
19:00+32se81315100 0.0 10141242
22:00+28e472098 0.0 1015123